Weather History for Fort Knox, KY

Change the Weather History Date:

Thursday, February 27, 2014

  Actual Average Record
Temperature  
Mean Temperature 24 °F -  
Max Temperature 32 °F 47 °F 66 °F (2011)
Min Temperature 15 °F 30 °F 14 °F (2002)
Degree Days  
Heating Degree Days 42    
Moisture  
Dew Point 4 °F    
Average Humidity 46    
Maximum Humidity 70    
Minimum Humidity 22    
Precipitation  
Precipitation 0.00 in - - ()
Sea Level Pressure  
Sea Level Pressure 30.03 in    
Wind  
Wind Speed 9 mph (West)    
Max Wind Speed 18 mph    
Max Gust Speed 28 mph    
Visibility 10 miles    
Events      
Averages and records for this station are not official NWS values.
T = Trace of Precipitation, MM = Missing Value Source: NWS Daily Summary

Daily Weather History Graph

Daily Weather History Graph

Search for Another Location

Airport:

Trip Planner

Search our weather history database for the weather conditions in past years. The results will help you decide how hot, cold, wet, or windy it might be!

Date:

Astronomy

Feb. 27, 2014 Rise Set
Actual Time 7:18 AM EST 6:35 PM EST
Civil Twilight 6:51 AM EST 7:01 PM EST
Nautical Twilight 6:21 AM EST 7:32 PM EST
Astronomical Twilight 5:50 AM EST 8:02 PM EST
Moon 5:49 AM EST (2/27) 5:01 PM EST (2/27)
Length of Visible Light 12h 10m
Length of Day
11h 17m
Waning Crescent, 4% of the Moon is Illuminated
Feb 27
Waning Crescent
Mar 1
New
Mar 8
First Quarter
Mar 16
Full
Mar 23
Last Quarter

Hourly Weather History & Observations

Time (EST) Temp. Windchill Dew Point Humidity Pressure Visibility Wind Dir Wind Speed Gust Speed Precip Events Conditions
12:58 AM 15.6 °F 4.9 °F 6.6 °F 68% 29.99 in 10.0 mi SW 8.1 mph - N/A   Clear
1:58 AM 15.6 °F 4.9 °F 6.8 °F 68% 29.97 in 10.0 mi SW 8.1 mph - N/A   Clear
2:58 AM 15.1 °F 4.2 °F 6.8 °F 70% 29.94 in 10.0 mi SSW 8.1 mph - N/A   Clear
3:58 AM 16.0 °F 5.3 °F 6.8 °F 67% 29.92 in 10.0 mi SSW 8.1 mph - N/A   Clear
4:58 AM 17.4 °F 6.2 °F 6.4 °F 62% 29.91 in 10.0 mi SW 9.2 mph - N/A   Clear
5:58 AM 18.5 °F 7.5 °F 6.6 °F 60% 29.92 in 10.0 mi SW 9.2 mph - N/A   Clear
6:58 AM 18.0 °F 6.9 °F 7.5 °F 64% 29.94 in 10.0 mi SSW 9.2 mph - N/A   Clear
7:58 AM 19.2 °F 10.2 °F 9.0 °F 64% 29.96 in 10.0 mi SW 6.9 mph - N/A   Clear
8:58 AM 23.7 °F 12.6 °F 11.5 °F 60% 29.98 in 10.0 mi WSW 11.5 mph - N/A   Clear
9:58 AM 26.8 °F 14.9 °F 10.9 °F 51% 30.00 in 10.0 mi WNW 15.0 mph 27.6 mph N/A   Partly Cloudy
10:14 AM 28.4 °F 15.8 °F 10.4 °F 47% 29.97 in 10.0 mi WNW 18.4 mph 24.2 mph N/A   Clear
10:58 AM 28.8 °F 16.6 °F 8.2 °F 42% 30.03 in 10.0 mi West 17.3 mph 25.3 mph N/A   Clear
11:06 AM 30.2 °F 20.8 °F 8.6 °F 40% 30.00 in 10.0 mi West 11.5 mph 25.3 mph N/A   Clear
11:58 AM 31.1 °F 22.4 °F 6.6 °F 36% 30.05 in 10.0 mi WNW 10.4 mph 21.9 mph N/A   Clear
12:58 PM 31.1 °F 21.4 °F 3.6 °F 31% 30.05 in 10.0 mi NW 12.7 mph 24.2 mph N/A   Clear
1:54 PM 32.0 °F 22.5 °F 1.4 °F 27% 30.01 in 10.0 mi West 12.7 mph 19.6 mph N/A   Clear
1:58 PM 32.5 °F 23.7 °F 1.9 °F 27% 30.05 in 10.0 mi West 11.5 mph 19.6 mph N/A   Clear
2:58 PM 32.0 °F 21.2 °F -2.6 °F 23% 30.05 in 10.0 mi NW 16.1 mph 20.7 mph N/A   Clear
3:58 PM 31.3 °F 23.9 °F -4.0 °F 22% 30.06 in 10.0 mi NNW 8.1 mph 18.4 mph N/A   Clear
4:58 PM 30.7 °F 23.3 °F -2.6 °F 24% 30.06 in 10.0 mi WNW 8.1 mph - N/A   Clear
5:58 PM 28.9 °F 21.9 °F -0.8 °F 28% 30.07 in 10.0 mi NW 6.9 mph - N/A   Clear
6:58 PM 25.2 °F 18.3 °F 1.0 °F 35% 30.09 in 10.0 mi WNW 5.8 mph - N/A   Clear
7:58 PM 23.2 °F 16.0 °F 1.9 °F 40% 30.11 in 10.0 mi NW 5.8 mph - N/A   Clear
8:58 PM 22.3 °F 13.0 °F -0.6 °F 37% 30.13 in 10.0 mi NNW 8.1 mph - N/A   Clear
9:58 PM 19.9 °F 13.4 °F -0.2 °F 41% 30.15 in 10.0 mi NW 4.6 mph - N/A   Clear
10:58 PM 18.1 °F 11.3 °F 1.8 °F 49% 30.17 in 10.0 mi NW 4.6 mph - N/A   Clear
11:58 PM 17.8 °F 10.9 °F 1.2 °F 48% 30.15 in 10.0 mi North 4.6 mph - N/A   Clear